Ypsilanti, MI

1:35 PM EDT on June 27, 2017 (GMT -0400)
Willow Run

Weather History for KYIP - April, 2013

Change the Weather History Date:

Monday, April 8, 2013

  Actual Average Record
Temperature  
Mean Temperature 52 °F -  
Max Temperature 70 °F 55 °F 79 °F (1991)
Min Temperature 34 °F 34 °F 13 °F (1982)
Degree Days  
Heating Degree Days 14    
Growing Degree Days 2 (Base 50)    
Moisture  
Dew Point 40 °F    
Average Humidity 72    
Maximum Humidity 83    
Minimum Humidity 53    
Precipitation  
Precipitation 0.16 in - - ()
Sea Level Pressure  
Sea Level Pressure 29.89 in    
Wind  
Wind Speed 7 mph (ESE)    
Max Wind Speed 22 mph    
Max Gust Speed 36 mph    
Visibility 7 miles    
Events Rain    
Averages and records for this station are not official NWS values.
T = Trace of Precipitation, MM = Missing Value Source: NWS Daily Summary

Daily Weather History Graph

Daily Weather History Graph

Search for Another Location

Airport or City:

Trip Planner

Search our weather history database for the weather conditions in past years. The results will help you decide how hot, cold, wet, or windy it might be!

Date:

Astronomy

Apr. 08, 2013 Rise Set
Actual Time 7:04 AM EDT 8:08 PM EDT
Civil Twilight 6:35 AM EDT 8:36 PM EDT
Nautical Twilight 6:01 AM EDT 9:11 PM EDT
Astronomical Twilight 5:25 AM EDT 9:47 PM EDT
Moon 5:55 AM EDT (4/8) 6:40 PM EDT (4/8)
Length of Visible Light 14h 01m
Length of Day
13h 03m
Waning Crescent, 3% of the Moon is Illuminated
Apr 8
Waning Crescent
Apr 10
New
Apr 18
First Quarter
Apr 25
Full
May 2
Last Quarter

Hourly Weather History & Observations

Time (EDT) Temp. Windchill Dew Point Humidity Pressure Visibility Wind Dir Wind Speed Gust Speed Precip Events Conditions
12:53 AM 39.9 °F 36.7 °F 30.0 °F 68% 30.06 in 10.0 mi ENE 4.6 mph - N/A   Clear
1:53 AM 37.0 °F 33.3 °F 28.9 °F 73% 30.05 in 10.0 mi East 4.6 mph - N/A   Clear
2:53 AM 37.0 °F 34.5 °F 28.9 °F 73% 30.04 in 10.0 mi East 3.5 mph - N/A   Clear
3:53 AM 37.0 °F 34.5 °F 30.0 °F 76% 30.03 in 10.0 mi East 3.5 mph - N/A   Clear
4:53 AM 37.0 °F 34.5 °F 30.0 °F 76% 30.03 in 9.0 mi East 3.5 mph - N/A   Clear
5:53 AM 34.0 °F 28.8 °F 28.9 °F 82% 30.00 in 9.0 mi NE 5.8 mph - N/A   Clear
6:53 AM 37.0 °F 32.4 °F 30.0 °F 76% 30.00 in 9.0 mi East 5.8 mph - N/A   Clear
7:53 AM 41.0 °F 37.1 °F 33.1 °F 73% 29.98 in 9.0 mi East 5.8 mph - N/A   Clear
8:53 AM 44.1 °F 38.6 °F 35.1 °F 71% 29.98 in 9.0 mi ESE 10.4 mph - N/A   Clear
9:53 AM 50.0 °F - 36.0 °F 59% 29.95 in 10.0 mi ESE 11.5 mph - N/A   Scattered Clouds
10:53 AM 51.1 °F - 37.0 °F 59% 29.92 in 8.0 mi ESE 8.1 mph - 0.00 in Rain Light Rain
11:53 AM 48.9 °F - 41.0 °F 74% 29.88 in 6.0 mi ESE 11.5 mph - 0.02 in Rain Light Rain
12:53 PM 50.0 °F - 41.0 °F 71% 29.84 in 6.0 mi SE 10.4 mph - 0.00 in   Haze
1:30 PM 50.0 °F - 42.8 °F 76% 29.83 in 2.0 mi SE 5.8 mph - 0.05 in Rain Rain
1:37 PM 50.0 °F - 42.8 °F 76% 29.81 in 1.8 mi ESE 8.1 mph - 0.09 in Rain Heavy Rain
1:49 PM 50.0 °F - 44.6 °F 82% 29.81 in 2.5 mi SE 6.9 mph - 0.10 in Rain Light Rain
1:53 PM 50.0 °F - 44.1 °F 80% 29.81 in 3.0 mi ESE 6.9 mph - 0.11 in Rain Rain
2:12 PM 50.0 °F - 44.6 °F 82% 29.80 in 2.0 mi SE 4.6 mph - 0.02 in Rain Light Rain
2:30 PM 51.8 °F - 44.6 °F 76% 29.79 in 4.0 mi SE 5.8 mph - 0.03 in Rain Light Rain
2:53 PM 52.0 °F - 46.0 °F 80% 29.78 in 3.0 mi SE 8.1 mph - 0.03 in   Haze
3:53 PM 54.0 °F - 48.9 °F 83% 29.74 in 4.0 mi SSE 4.6 mph - N/A   Haze
4:53 PM 60.1 °F - 52.0 °F 75% 29.70 in 6.0 mi South 10.4 mph - N/A   Haze
5:53 PM 69.1 °F - 55.0 °F 61% 29.70 in 10.0 mi SW 17.3 mph 26.5 mph N/A   Mostly Cloudy
6:53 PM 69.1 °F - 51.1 °F 53% 29.74 in 10.0 mi West 19.6 mph 28.8 mph N/A   Mostly Cloudy
7:53 PM 64.9 °F - 48.0 °F 54% 29.78 in 10.0 mi West 18.4 mph 31.1 mph N/A   Clear
8:53 PM 60.1 °F - 44.1 °F 55% 29.84 in 10.0 mi West 21.9 mph 35.7 mph N/A   Clear
9:53 PM 54.0 °F - 43.0 °F 66% 29.89 in 10.0 mi West 19.6 mph - N/A   Clear
10:53 PM 48.0 °F - 41.0 °F 77% 29.94 in 10.0 mi WNW 8.1 mph - N/A   Clear
11:53 PM 48.0 °F - 41.0 °F 77% 29.96 in 10.0 mi NW 11.5 mph - N/A   Clear